Jackson, MI

5:02 AM EDT on July 22, 2019 (GMT -0400)
Jackson County-Reynolds

Weather History for KJXN - May, 2019

Change the Weather History Date:

Tuesday, May 28, 2019

  Actual Average Record
Temperature  
Mean Temperature 67 °F 62 °F  
Max Temperature 77 °F 73 °F 95 °F (2018)
Min Temperature 56 °F 50 °F 33 °F (2008)
Degree Days  
Heating Degree Days 0 5  
Month to date heating degree days 237 243  
Since 1 July heating degree days 6634 6589  
Cooling Degree Days 2 2  
Month to date cooling degree days 10 26  
Year to date cooling degree days 10 32  
Growing Degree Days 16 (Base 50)    
Moisture  
Dew Point 61 °F    
Average Humidity 79    
Maximum Humidity 100    
Minimum Humidity 57    
Precipitation  
Precipitation T in 0.11 in 0.43 in (1955)
Month to date precipitation 3.23 2.98  
Year to date precipitation 11.47 10.27  
Sea Level Pressure  
Sea Level Pressure 29.70 in    
Wind  
Wind Speed 11 mph (WSW)    
Max Wind Speed 23 mph    
Max Gust Speed 36 mph    
Visibility 9 miles    
Events      
T = Trace of Precipitation, MM = Missing Value Source: NWS Daily Summary

Daily Weather History Graph

Daily Weather History Graph

Search for Another Location

Airport or City:

Astronomy

May. 28, 2019 Rise Set
Actual Time 6:06 AM EDT 9:04 PM EDT
Civil Twilight 5:32 AM EDT 9:37 PM EDT
Nautical Twilight 4:50 AM EDT 10:20 PM EDT
Astronomical Twilight 4:00 AM EDT 11:10 PM EDT
Moon 3:26 AM EDT (5/28) 3:05 PM EDT (5/28)
Length of Visible Light 16h 05m
Length of Day
14h 58m
Waning Crescent, 32% of the Moon is Illuminated
May 28
Waning Crescent
Jun 3
New
Jun 10
First Quarter
Jun 17
Full
Jun 25
Last Quarter

Hourly Weather History & Observations

Time (EDT) Temp. Dew Point Humidity Pressure Visibility Wind Dir Wind Speed Gust Speed Precip Events Conditions
12:34 AM 55.9 °F 54.0 °F 93% 29.75 in 10.0 mi ESE 9.2 mph - N/A   Mostly Cloudy
12:53 AM 55.4 °F 55.4 °F 100% 29.73 in 10.0 mi East 8.1 mph - N/A   Overcast
12:56 AM 55.9 °F 55.0 °F 97% 29.73 in 10.0 mi East 6.9 mph - N/A   Overcast
1:56 AM 57.0 °F 55.9 °F 96% 29.70 in 10.0 mi ESE 8.1 mph - N/A   Overcast
2:52 AM 57.2 °F 57.2 °F 100% 29.67 in 7.0 mi SSE 5.8 mph - 0.00 in   Overcast
2:56 AM 57.9 °F 57.9 °F 100% 29.66 in 7.0 mi SSE 6.9 mph - 0.00 in   Overcast
3:56 AM 57.9 °F 57.9 °F 100% 29.65 in 5.0 mi South 3.5 mph - N/A   Scattered Clouds
4:49 AM 57.0 °F 57.0 °F 100% 29.66 in 1.8 mi SSW 3.5 mph - N/A   Scattered Clouds
4:56 AM 59.0 °F 59.0 °F 100% 29.65 in 1.8 mi South 5.8 mph - N/A   Scattered Clouds
4:58 AM 59.0 °F 59.0 °F 100% 29.66 in 3.0 mi South 5.8 mph - N/A   Scattered Clouds
5:56 AM 64.9 °F 64.0 °F 97% 29.65 in 10.0 mi SSW 9.2 mph - N/A   Clear
6:56 AM 66.0 °F 64.9 °F 96% 29.67 in 10.0 mi SW 11.5 mph - N/A   Clear
7:31 AM 68.0 °F 66.0 °F 93% 29.68 in 10.0 mi SW 10.4 mph - N/A   Mostly Cloudy
7:56 AM 69.1 °F 66.0 °F 90% 29.67 in 10.0 mi SW 9.2 mph - N/A   Scattered Clouds
8:48 AM 70.0 °F 66.9 °F 90% 29.68 in 10.0 mi WSW 10.4 mph - N/A   Mostly Cloudy
8:56 AM 71.1 °F 66.9 °F 87% 29.67 in 10.0 mi SW 11.5 mph - N/A   Mostly Cloudy
9:56 AM 72.0 °F 66.0 °F 81% 29.66 in 10.0 mi WSW 12.7 mph 21.9 mph N/A   Mostly Cloudy
10:26 AM 73.9 °F 66.0 °F 76% 29.66 in 10.0 mi SW 15.0 mph - N/A   Scattered Clouds
10:56 AM 75.0 °F 66.0 °F 73% 29.66 in 10.0 mi WSW 16.1 mph 25.3 mph N/A   Mostly Cloudy
11:35 AM 75.0 °F 64.9 °F 71% 29.69 in 10.0 mi WSW 15.0 mph 31.1 mph N/A   Mostly Cloudy
11:56 AM 77.0 °F 64.0 °F 64% 29.68 in 10.0 mi SW 16.1 mph 32.2 mph N/A   Mostly Cloudy
12:56 PM 75.9 °F 64.0 °F 67% 29.70 in 10.0 mi WSW 20.7 mph 33.4 mph N/A   Partly Cloudy
1:51 PM 73.4 °F 62.6 °F 69% 29.72 in 10.0 mi WSW 19.6 mph 29.9 mph N/A   Mostly Cloudy
1:56 PM 73.9 °F 63.0 °F 68% 29.71 in 10.0 mi WSW 15.0 mph 29.9 mph N/A   Mostly Cloudy
2:56 PM 73.9 °F 63.0 °F 68% 29.73 in 10.0 mi WSW 15.0 mph 25.3 mph N/A   Mostly Cloudy
3:24 PM 73.9 °F 63.0 °F 68% 29.73 in 10.0 mi West 13.8 mph 24.2 mph N/A   Partly Cloudy
3:56 PM 73.9 °F 62.1 °F 66% 29.72 in 10.0 mi West 11.5 mph 19.6 mph N/A   Partly Cloudy
4:56 PM 73.0 °F 57.9 °F 59% 29.70 in 10.0 mi WSW 17.3 mph 26.5 mph N/A   Clear
5:56 PM 71.1 °F 57.0 °F 61% 29.70 in 10.0 mi WSW 10.4 mph 24.2 mph N/A   Partly Cloudy
6:56 PM 70.0 °F 57.9 °F 65% 29.71 in 10.0 mi West 5.8 mph - N/A   Overcast
7:56 PM 66.0 °F 60.1 °F 81% 29.71 in 10.0 mi NW 6.9 mph - N/A   Scattered Clouds
8:56 PM 63.0 °F 59.0 °F 87% 29.73 in 10.0 mi NNE 3.5 mph - N/A   Scattered Clouds
9:14 PM 61.0 °F 57.9 °F 90% 29.75 in 10.0 mi NE 6.9 mph - N/A   Mostly Cloudy
9:25 PM 61.0 °F 57.9 °F 90% 29.77 in 10.0 mi North 4.6 mph - N/A   Mostly Cloudy
9:56 PM 61.0 °F 57.9 °F 90% 29.76 in 10.0 mi North 5.8 mph - N/A   Overcast
10:56 PM 60.1 °F 57.0 °F 90% 29.77 in 10.0 mi NNW 5.8 mph - N/A   Overcast
11:15 PM 60.1 °F 55.9 °F 86% 29.78 in 10.0 mi North 4.6 mph - N/A   Overcast
11:56 PM 59.0 °F 55.0 °F 87% 29.76 in 10.0 mi NNW 8.1 mph - N/A   Overcast